軌道要素
Epoch 2002 Feb. 15.0 TT = JDT 2452320.5
T 2002 Feb. 3.59463 TT Muraoka
q 1.3527674 (2000.0) P Q
n 0.15092357 Peri. 178.11385 +0.73329322 +0.64360448
a 3.4937997 Node 138.94498 -0.62809589 +0.76468661
e 0.6128091 Incl. 19.49761 -0.26033939 -0.03205706
P 6.53
From 313 observations 1988-1999, mean residual 0".71. Nongravitational
parameters A1 = +0.70 +/- 0.03, A2 = +0.1157 +/- 0.0033.
|